STARLINK-11696, 64324

Orbit data source: Space-Track

STARLINK-11696, 64324 is a payload satellite owned by SpaceX/Seattle (US) in LEO that was launched on Tue, 10 Jun 2025 UTC via an FALCON 9 launch vehicle from the Air Force Eastern Test Range (AFETR). Payload-class satellites include a variety of spacecraft equipped with specific instruments for various scientific and technological missions. These include communications satellites like Starlink; space stations such as the ISS; scientific satellites like the Hubble; Earth observation satellites from companies like Planet Labs, Umbra, and HawkEye 360; GPS; miniature CubeSats for education and research; and military/defense satellites.

Loading next visibility...
Identifier
64324, 2025-124H
Orbit
LEO
Country
Flag of USUS
Related business
Manufacturer
SpaceX/Seattle
Mission
Operational Commercial Communications
Bus & Motor
STARLINK V2MD, Unknown motor
Mass
960 kg wet, ~910 kg dry
Launch date (UTC)
Icon of a cake. It is the launch day of the satellite!2025-06-10 (1 year ago)
Launch vehicle
FALCON 9
Launch site
Air Force Eastern Test Range (AFETR)
Object type
Payload
Rocket body
Debris
Shape & HBR
Box + 2 Pan, 18.1 m
Radar Cross Section
36.964 m², Large (>1 m²)

Expand to show TLE details & history
Last TLE update: 6 days ago

TLE from 6 days ago
0 STARLINK-11696
1 64324U 25124H   26154.69674568  .00164362  00000-0  12520-2 0  9996
2 64324  42.9947 230.5587 0000780 111.2670 248.8281 15.70977710 56366
Epoch: 2026-06-03T16:43Z
TLE epoch observation values (Epoch: 2026-06-03T16:43:18.826Z)
Latitude
-0.00003°
Longitude
87.57858°
Altitude
356.062 km
Speed
7.697 km/s
True Right ascension
15h 22m 14s
True Declination
0° 00' 00"
Sunlit
Object was in full shadow at epoch
Visualization orbit readout
Latitude
Unknown
Longitude
Unknown
Altitude
Unknown
Speed
Unknown
Apparent Right ascension
Unknown
Apparent Declination
Unknown
Sunlit
N/A
Visualization observer readout
Local Sidereal Time
13:24:00
Azimuth
Unknown
Elevation
Unknown
Doppler factor
Unknown
Orbital elements
Apogee altitude
358.61 km
Perigee altitude
357.559 km
Semi-major axis
6,736.221 km
Eccentricity
0.00008
Inclination
42.9947°
RAAN
230.5587°
Arg. of periapsis
111.267°
True anomaly
248.81977°
Mean anomaly
248.8281°
Eccentric anomaly
248.82393°
Mean motion
3.92571 °/min
Orbital period
91.7 mins
BSTAR
0.001252
Loading maneuver chart data...
Computing Atmospheric mass density...
Loading historical data...
Loading historical data...
Loading historical data...
Loading historical data...
Loading historical data...
Loading historical data...
Loading historical data...

Documentation

Showing up to 5 results
|